Weather History for Council Bluffs, IA

Change the Weather History Date:

Tuesday, March 13, 2012

  Actual Average Record
Temperature  
Mean Temperature 62 °F -  
Max Temperature 78 °F 43 °F 80 °F (2007)
Min Temperature 46 °F 26 °F 15 °F (2013)
Degree Days  
Heating Degree Days 3    
Growing Degree Days 12 (Base 50)    
Moisture  
Dew Point 44 °F    
Average Humidity 58    
Maximum Humidity 87    
Minimum Humidity 26    
Precipitation  
Precipitation 0.00 in - - ()
Sea Level Pressure  
Sea Level Pressure 29.91 in    
Wind  
Wind Speed 11 mph (SE)    
Max Wind Speed 23 mph    
Max Gust Speed 29 mph    
Visibility 10 miles    
Events      
Averages and records for this station are not official NWS values.
T = Trace of Precipitation, MM = Missing Value Source: NWS Daily Summary

Daily Weather History Graph

Daily Weather History Graph

Search for Another Location

Airport:

Trip Planner

Search our weather history database for the weather conditions in past years. The results will help you decide how hot, cold, wet, or windy it might be!

Date:

Astronomy

Mar. 13, 2012 Rise Set
Actual Time 7:37 AM CDT 7:28 PM CDT
Civil Twilight 7:09 AM CDT 7:55 PM CDT
Nautical Twilight 6:37 AM CDT 8:27 PM CDT
Astronomical Twilight 6:05 AM CDT 9:00 PM CDT
Moon 1:04 AM CDT (3/13) 10:47 AM CDT (3/13)
Length of Visible Light 12h 45m
Length of Day
11h 50m
Waning Gibbous, 65% of the Moon is Illuminated
Mar 13
Waning Gibbous
Mar 14
Last Quarter
Mar 22
New
Mar 30
First Quarter
Apr 6
Full

Hourly Weather History & Observations

Time (CDT) Temp. Windchill Dew Point Humidity Pressure Visibility Wind Dir Wind Speed Gust Speed Precip Events Conditions
12:15 AM 51.8 °F - 44.6 °F 76% 29.94 in 10.0 mi NE 8.1 mph - N/A   Clear
12:35 AM 51.8 °F - 44.6 °F 76% 29.94 in 10.0 mi NNE 8.1 mph - N/A   Clear
12:55 AM 51.8 °F - 44.6 °F 76% 29.94 in 10.0 mi NE 9.2 mph - N/A   Clear
1:15 AM 53.6 °F - 44.6 °F 72% 29.94 in 10.0 mi NE 9.2 mph - N/A   Clear
1:35 AM 53.6 °F - 44.6 °F 72% 29.95 in 10.0 mi ENE 10.4 mph - N/A   Clear
1:55 AM 53.6 °F - 44.6 °F 72% 29.95 in 10.0 mi ENE 9.2 mph - N/A   Unknown
2:15 AM 51.8 °F - 44.6 °F 76% 29.96 in 10.0 mi East 8.1 mph - N/A   Clear
2:35 AM 50.0 °F - 42.8 °F 76% 29.97 in 10.0 mi ESE 6.9 mph - N/A   Clear
2:55 AM 48.2 °F - 42.8 °F 82% 29.98 in 10.0 mi ESE 5.8 mph - N/A   Clear
3:15 AM 48.2 °F - 42.8 °F 82% 29.97 in 10.0 mi East 8.1 mph - N/A   Clear
3:35 AM 50.0 °F - 44.6 °F 82% 29.97 in 10.0 mi ESE 9.2 mph - N/A   Clear
3:55 AM 48.2 °F - 42.8 °F 82% 29.97 in 10.0 mi ESE 6.9 mph - N/A   Clear
4:15 AM 50.0 °F - 44.6 °F 82% 29.96 in 10.0 mi East 10.4 mph - N/A   Clear
4:35 AM 50.0 °F - 44.6 °F 82% 29.96 in 10.0 mi ESE 9.2 mph - N/A   Clear
4:55 AM 48.2 °F - 44.6 °F 87% 29.96 in 10.0 mi ESE 10.4 mph 18.4 mph N/A   Clear
5:15 AM 48.2 °F - 44.6 °F 87% 29.96 in 10.0 mi ESE 9.2 mph - N/A   Clear
5:35 AM 48.2 °F - 44.6 °F 87% 29.96 in 10.0 mi ESE 10.4 mph - N/A   Clear
5:55 AM 48.2 °F - 44.6 °F 87% 29.96 in 10.0 mi ESE 10.4 mph - N/A   Clear
6:15 AM 48.2 °F - 42.8 °F 82% 29.96 in 10.0 mi ESE 10.4 mph - N/A   Clear
6:35 AM 46.4 °F 41.9 °F 42.8 °F 87% 29.97 in 10.0 mi ESE 9.2 mph - N/A   Unknown
6:55 AM 46.4 °F 41.5 °F 42.8 °F 87% 29.97 in 10.0 mi ESE 10.4 mph - N/A   Clear
7:55 AM 46.4 °F 41.5 °F 42.8 °F 87% 29.97 in 9.0 mi SE 10.4 mph - N/A   Clear
8:15 AM 46.4 °F 42.4 °F 42.8 °F 87% 29.97 in 10.0 mi SE 8.1 mph - N/A   Clear
8:35 AM 48.2 °F - 42.8 °F 82% 29.98 in 10.0 mi SE 9.2 mph - N/A   Clear
8:55 AM 48.2 °F - 44.6 °F 87% 29.98 in 10.0 mi SE 8.1 mph - N/A   Clear
9:15 AM 50.0 °F - 44.6 °F 82% 29.98 in 10.0 mi SSE 9.2 mph - N/A   Clear
9:35 AM 51.8 °F - 44.6 °F 76% 29.98 in 10.0 mi SSE 10.4 mph - N/A   Clear
9:55 AM 53.6 °F - 44.6 °F 72% 29.98 in 10.0 mi SSE 12.7 mph - N/A   Clear
10:15 AM 55.4 °F - 46.4 °F 72% 29.98 in 10.0 mi SE 11.5 mph - N/A   Clear
10:35 AM 59.0 °F - 46.4 °F 63% 29.98 in 10.0 mi SSE 16.1 mph - N/A   Clear
10:55 AM 60.8 °F - 46.4 °F 59% 29.98 in 10.0 mi South 13.8 mph 19.6 mph N/A   Clear
11:15 AM 64.4 °F - 44.6 °F 49% 29.97 in 10.0 mi South 18.4 mph - N/A   Clear
11:35 AM 64.4 °F - 44.6 °F 49% 29.97 in 10.0 mi South 18.4 mph 25.3 mph N/A   Clear
11:55 AM 66.2 °F - 44.6 °F 46% 29.96 in 10.0 mi South 16.1 mph 24.2 mph N/A   Clear
12:15 PM 68.0 °F - 46.4 °F 46% 29.96 in 10.0 mi SSE 20.7 mph 26.5 mph N/A   Clear
12:35 PM 69.8 °F - 46.4 °F 43% 29.95 in 10.0 mi South 17.3 mph - N/A   Clear
12:55 PM 69.8 °F - 46.4 °F 43% 29.94 in 10.0 mi South 17.3 mph 24.2 mph N/A   Clear
1:15 PM 71.6 °F - 46.4 °F 41% 29.93 in 10.0 mi South 19.6 mph - N/A   Clear
1:35 PM 73.4 °F - 44.6 °F 36% 29.92 in 10.0 mi South 16.1 mph 21.9 mph N/A   Clear
1:55 PM 73.4 °F - 44.6 °F 36% 29.91 in 10.0 mi SSE 15.0 mph - N/A   Clear
2:15 PM 75.2 °F - 46.4 °F 36% 29.89 in 10.0 mi SSE 16.1 mph 23.0 mph N/A   Clear
2:35 PM 77.0 °F - 44.6 °F 32% 29.88 in 10.0 mi South 16.1 mph - N/A   Clear
3:15 PM 78.8 °F - 42.8 °F 28% 29.86 in 10.0 mi South 19.6 mph - N/A   Clear
3:35 PM 78.8 °F - 41.0 °F 26% 29.84 in 10.0 mi SSE 18.4 mph 27.6 mph N/A   Clear
3:55 PM 78.8 °F - 41.0 °F 26% 29.84 in 10.0 mi SSE 21.9 mph - N/A   Clear
4:15 PM 78.8 °F - 41.0 °F 26% 29.83 in 10.0 mi SSE 19.6 mph - N/A   Clear
4:35 PM 78.8 °F - 41.0 °F 26% 29.82 in 10.0 mi South 23.0 mph 28.8 mph N/A   Clear
4:55 PM 78.8 °F - 41.0 °F 26% 29.82 in 10.0 mi SSE 20.7 mph - N/A   Clear
5:15 PM 78.8 °F - 41.0 °F 26% 29.81 in 10.0 mi South 20.7 mph - N/A   Clear
5:35 PM 78.8 °F - 41.0 °F 26% 29.81 in 10.0 mi SSE 19.6 mph 26.5 mph N/A   Clear
5:55 PM 77.0 °F - 41.0 °F 28% 29.81 in 10.0 mi SSE 17.3 mph 26.5 mph N/A   Clear
6:15 PM 77.0 °F - 41.0 °F 28% 29.80 in 10.0 mi SSE 16.1 mph 24.2 mph N/A   Clear
6:35 PM 75.2 °F - 42.8 °F 31% 29.80 in 10.0 mi SSE 13.8 mph - N/A   Clear
6:55 PM 73.4 °F - 41.0 °F 31% 29.80 in 10.0 mi SSE 15.0 mph - N/A   Clear
7:15 PM 73.4 °F - 41.0 °F 31% 29.80 in 10.0 mi SSE 13.8 mph - N/A   Clear
7:35 PM 69.8 °F - 41.0 °F 35% 29.80 in 10.0 mi SE 11.5 mph - N/A   Clear
7:55 PM 68.0 °F - 42.8 °F 40% 29.80 in 10.0 mi SE 11.5 mph - N/A   Clear
8:15 PM 66.2 °F - 42.8 °F 43% 29.80 in 10.0 mi SSE 10.4 mph - N/A   Partly Cloudy
8:35 PM 64.4 °F - 42.8 °F 45% 29.80 in 10.0 mi SE 12.7 mph - N/A   Clear
8:55 PM 64.4 °F - 44.6 °F 49% 29.80 in 10.0 mi SE 11.5 mph - N/A   Clear
9:15 PM 62.6 °F - 44.6 °F 52% 29.80 in 10.0 mi SSE 12.7 mph - N/A   Clear
9:35 PM 64.4 °F - 46.4 °F 52% 29.80 in 10.0 mi SSE 15.0 mph - N/A   Clear
9:55 PM 64.4 °F - 46.4 °F 52% 29.80 in 10.0 mi SSE 12.7 mph - N/A   Clear
10:15 PM 64.4 °F - 48.2 °F 56% 29.79 in 10.0 mi SSE 13.8 mph 19.6 mph N/A   Clear
10:55 PM 62.6 °F - 50.0 °F 63% 29.80 in 10.0 mi South 11.5 mph - N/A   Clear
11:15 PM 62.6 °F - 50.0 °F 63% 29.80 in 10.0 mi South 12.7 mph - N/A   Clear
11:35 PM 60.8 °F - 50.0 °F 68% 29.80 in 10.0 mi South 11.5 mph - N/A   Clear
11:55 PM 62.6 °F - 50.0 °F 63% 29.79 in 10.0 mi South 12.7 mph - N/A   Clear